This is the latest recevied weather packets stored in our database for station/object N1PRS-9. If no packets are shown the sender has not sent any weather packets the latest 10 day(s).
| Time | Temp. | Humidity | Pressure | Rain* | Wind** | Luminosity | Snow |
|---|---|---|---|---|---|---|---|
| 1777682760 | 12.78° C | 55% | 1011.7 hPa | 0 mm | - | 0 W/m² | - |
| 1777682133 | 12.78° C | 53% | 1011.5 hPa | 0 mm | - | 0 W/m² | - |
| 1777681846 | 12.78° C | 50% | 1011.4 hPa | 0 mm | - | 0 W/m² | - |
| 1777680045 | 13.89° C | 48% | 1011 hPa | 0 mm | - | 0 W/m² | - |
| 1777678533 | 14.44° C | 47% | 1010.5 hPa | 0 mm | - | 0 W/m² | - |
| 1777677033 | 16.11° C | 42% | 1010.2 hPa | 0 mm | - | 12 W/m² | - |
| 1777674933 | 17.22° C | 39% | 1009.8 hPa | 0 mm | - | 49 W/m² | - |
| 1777673133 | 18.89° C | 36% | 1009.9 hPa | 0 mm | - | 323 W/m² | - |
| 1777672850 | 18.33° C | 36% | 1009.9 hPa | 0 mm | - | 355 W/m² | - |
| 1777671051 | 17.22° C | 40% | 1010.1 hPa | 0 mm | - | 476 W/m² | - |
| 1777670432 | 17.22° C | 37% | 1010 hPa | 0 mm | - | 69 W/m² | - |
| 1777668630 | 18.33° C | 37% | 1009.9 hPa | 0 mm | - | 587 W/m² | - |
| 1777665032 | 17.22° C | 40% | 1009.9 hPa | 0 mm | - | 752 W/m² | - |
| 1777663860 | 17.22° C | 36% | 1010 hPa | 0 mm | - | 786 W/m² | - |
| 1777662633 | 17.22° C | 38% | 1010.5 hPa | 0 mm | - | 867 W/m² | - |
| 1777662335 | 17.22° C | 39% | 1010.5 hPa | 0 mm | - | 879 W/m² | - |
| 1777661435 | 16.67° C | 38% | 1010.6 hPa | 0 mm | - | 893 W/m² | - |
| 1777654852 | 14.44° C | 44% | 1011 hPa | 0 mm | - | 171 W/m² | - |
| 1777649733 | 12.22° C | 55% | 1011.7 hPa | 0 mm | - | 490 W/m² | - |
| 1777648835 | 11.67° C | 55% | 1011.7 hPa | 0 mm | - | 366 W/m² | - |
| 1777646433 | 11.11° C | 59% | 1011.9 hPa | 0 mm | - | 169 W/m² | - |
| 1777645531 | 11.11° C | 61% | 1011.9 hPa | 0 mm | - | 146 W/m² | - |
| 1777644333 | 10.56° C | 61% | 1011.9 hPa | 0 mm | - | 134 W/m² | - |
| 1777643150 | 9.44° C | 67% | 1011.9 hPa | 0 mm | - | 53 W/m² | - |
| 1777642248 | 9.44° C | 69% | 1012.1 hPa | 0 mm | - | 127 W/m² | - |
* Rain latest hour (hover to see other rain measurements)
** Current wind speed in m/s (hover to see current wind gust speed)